Regional Weather Roundup
Issued by NWS

Home | Current Version | Previous Version | Graphics & Text | Print | Product List | Glossary On
Versions: 1 2 3 4 5 6 7 8 9 10 11 12 13 14 15 16 17 18 19 20 21 22 23 24 25 26 27
000
ASUS45 KCYS 261110
RWRWY

WYOMING REGIONAL WEATHER ROUNDUP
NATIONAL WEATHER SERVICE CHEYENNE WY
500 AM MDT MON SEP 26 2016

NOTE:  "FAIR" INDICATES FEW OR NO CLOUDS BELOW 12,000 FEET
WITH NO SIGNIFICANT WEATHER AND/OR OBSTRUCTIONS TO VISIBILITY.

WYZ001-261200-
YELLOWSTONE NATIONAL PARK

CITY           SKY/WX    TMP DP  RH WIND       PRES   REMARKS
LK YELLOWSTONE   N/A     29  29 100 CALM      30.55F
W YELLOWSTONE  NOT AVBL

$$
WYZ002>013-054>058-071-098>099-261200-
NORTHERN WYOMING

CITY           SKY/WX    TMP DP  RH WIND       PRES   REMARKS
JACKSON        FAIR      34  34 100 NE3       30.52S
CODY           FAIR      42  39  89 S5        30.40S
GREYBULL       FAIR      44  41  89 CALM      30.37S
WORLAND        FAIR      41  39  93 S5        30.37S
SHERIDAN       FAIR      47  41  80 W7        30.34R
BUFFALO        FAIR      50  37  61 NW3       30.36F
GILLETTE       FAIR      47  40  76 W13       30.33S
HULETT         FAIR      46  36  66 SW9       30.32F
NEWCASTLE      FAIR      37  34  87 NE6       30.34S WCI  33

$$
WYZ014>020-022>026-101>103-261200-
CENTRAL WYOMING

CITY           SKY/WX    TMP DP  RH WIND       PRES   REMARKS
BIG PINEY      FAIR      36  32  85 NE5       30.49S WCI  32
PINEDALE       FAIR      32  32 100 W5        30.50R WCI  27
DUBOIS         FAIR      43  34  70 NW12      30.46F
LANDER         FAIR      46  38  73 CALM      30.40R
RIVERTON       FAIR      43  40  89 CALM      30.41S
CASPER         FAIR      39  36  89 CALM      30.40S
DOUGLAS        FAIR      36  34  92 N7        30.40S WCI  30

$$
WYZ021-027>030-104>119-261200-
SOUTHERN WYOMING

CITY           SKY/WX    TMP DP  RH WIND       PRES   REMARKS
EVANSTON       FAIR      44  31  60 SW6       30.50S
FORT BRIDGER   FAIR      46  35  64 W10       30.51F
ROCK SPRINGS   FAIR      44  34  67 SW3       30.47F
DIXON          FAIR      36  32  86 CALM      30.52S
RAWLINS        FAIR      35  31  85 N5        30.47R WCI  31
SARATOGA       FAIR      37  32  81 SE9       30.48F WCI  31
LARAMIE        FAIR      34  29  82 SE7       30.46S WCI  28
CHEYENNE       FAIR      41  32  70 W5        30.41F
TORRINGTON     FAIR      37  34  89 W3        30.36R
PINE BLUFFS    FAIR      34  32  93 MISG      30.40S

$$




USA.gov is the U.S. government's official web portal to all federal, state and local government web resources and services.